Weather History for Amendola, Italy

Change the Weather History Date:

Thursday, September 27, 2012

  Actual Average Record
Temperature  
Mean Temperature 81 °F -  
Max Temperature 96 °F 73 °F 96 °F (2012)
Min Temperature 66 °F 54 °F 50 °F (2000)
Cooling Degree Days 16    
Growing Degree Days 31 (Base 50)    
Moisture  
Dew Point 59 °F    
Average Humidity 48    
Maximum Humidity 95    
Minimum Humidity 13    
Precipitation  
Precipitation 0.00 in 0.07 in - ()
Sea Level Pressure  
Sea Level Pressure 29.96 in    
Wind  
Wind Speed 5 mph ()    
Max Wind Speed 16 mph    
Max Gust Speed -    
Visibility 8.1 miles    
Events      
Averages and records for this station are not official NWS values.
T = Trace of Precipitation, MM = Missing Value Source: Averaged Metar Reports

Daily Weather History Graph

Daily Weather History Graph

Search for Another Location

Airport:

Trip Planner

Search our weather history database for the weather conditions in past years. The results will help you decide how hot, cold, wet, or windy it might be!

Date:

Astronomy

Sep. 27, 2012 Rise Set
Actual Time 6:49 AM CEST 6:45 PM CEST
Civil Twilight 6:22 AM CEST 7:12 PM CEST
Nautical Twilight 5:50 AM CEST 7:45 PM CEST
Astronomical Twilight 5:17 AM CEST 8:17 PM CEST
Moon 5:08 PM CEST (9/27) 3:59 AM CEST (9/27)
Length of Visible Light 12h 50m
Length of Day
11h 55m
Waxing Gibbous, 92% of the Moon is Illuminated
Sep 27
Waxing Gibbous
Sep 30
Full
Oct 8
Last Quarter
Oct 15
New
Oct 22
First Quarter

Hourly Weather History & Observations

Time (CEST) Temp. Heat Index Dew Point Humidity Pressure Visibility Wind Dir Wind Speed Gust Speed Precip Events Conditions
6:55 AM 68.0 °F - 66.2 °F 94% 29.95 in - NE 3.5 mph - N/A   Clear
7:55 AM 68.0 °F - 66.2 °F 94% 29.95 in - East 3.5 mph - N/A   Clear
8:00 AM 67 °F - 66 °F 95% 29.96 in 6 mi East 3.5 mph - -   Partly Cloudy
8:55 AM 73.4 °F - 66.2 °F 78% 29.98 in - East 2.3 mph - N/A   Clear
9:55 AM 80.6 °F 80.8 °F 57.2 °F 45% 29.98 in - Calm Calm - N/A   Clear
10:55 AM 86.0 °F 84.5 °F 55.4 °F 35% 29.98 in - SSW 4.6 mph - N/A   Clear
11:00 AM 86 °F - 56 °F 26% 29.98 in 9 mi SSW 4.6 mph - -   Clear
11:55 AM 87.8 °F 86.5 °F 57.2 °F 35% 29.95 in - SW 5.8 mph - N/A   Clear
12:55 PM 93.2 °F 91.9 °F 57.2 °F 30% 29.95 in - SSW 6.9 mph - N/A   Clear
1:55 PM 96.8 °F - 50.0 °F 20% 29.95 in - WSW 13.8 mph - N/A   Clear
2:00 PM 96 °F - 50 °F 13% 29.94 in 12 mi WSW 13.8 mph - -   Scattered Clouds
2:55 PM 95.0 °F - 48.2 °F 20% 29.92 in - WSW 16.1 mph - N/A   Clear
3:55 PM 95.0 °F - 50.0 °F 22% 29.95 in - WSW 15.0 mph - N/A   Clear
4:55 PM 91.4 °F 89.1 °F 53.6 °F 28% 29.95 in 6.2 mi WSW 8.1 mph - N/A   Partly Cloudy
5:00 PM 91 °F - 54 °F 19% 29.95 in 12 mi WSW 8.1 mph - -   Scattered Clouds
5:55 PM 87.8 °F 87.1 °F 59.0 °F 38% 29.95 in 6.2 mi West 2.3 mph - N/A   Partly Cloudy
6:55 PM 86.0 °F 85.4 °F 59.0 °F 40% 29.98 in 6.2 mi Variable 2.3 mph - N/A   Partly Cloudy
7:55 PM 78.8 °F - 75.2 °F 89% 29.98 in 6.2 mi ENE 2.3 mph - N/A   Partly Cloudy
8:00 PM 78 °F - 76 °F 91% 29.98 in 9 mi ENE 2.3 mph - -   Scattered Clouds